FR5ZU Weather Reports


time (UTC)temp
C
wind
direction
speed
KPH
gust
KPH
rain 1hr
cm
rain 24hr
cm
rain mn
cm
humidity
%
barometer
mb
20260505161552 17 5 0.0 4.8 0.00 0.08 0.08 99 1017.8
20260505153053 17 85 1.6 6.4 0.03 0.08 0.08 100 1017.5
20260505151550 17 62 1.6 4.8 0.03 0.08 0.08 100 1017.2
20260505124543 20 189 0.0 3.2 0.00 0.05 0.05 93 1016.2
20260505123043 20 118 1.6 4.8 0.00 0.05 0.05 92 1016.0
20260505121547 21 123 0.0 9.7 0.00 0.05 0.05 91 1015.8
20260505120042 21 115 0.0 4.8 0.00 0.05 0.05 89 1015.7
20260505114541 21 168 0.0 4.8 0.00 0.05 0.05 88 1015.7
20260505113044 22 94 1.6 4.8 0.00 0.05 0.05 88 1015.7
20260505111545 22 89 3.2 14.5 0.00 0.05 0.05 87 1015.5
20260505101536 23 205 3.2 8.0 0.00 0.05 0.05 85 1015.6
20260505100036 22 105 3.2 11.3 0.00 0.05 0.05 85 1015.7
20260505094533 23 125 3.2 14.5 0.00 0.05 0.05 84 1015.6
20260505093044 23 160 6.4 12.9 0.00 0.05 0.05 82 1015.7
20260505091530 23 144 4.8 9.7 0.00 0.05 0.05 82 1016.0
20260505090030 23 123 4.8 11.3 0.00 0.05 0.05 82 1016.2
20260505084529 23 157 1.6 9.7 0.00 0.05 0.05 83 1016.3
20260505083020 23 118 4.8 12.9 0.00 0.05 0.05 85 1016.6
20260505081521 23 110 8.0 14.5 0.00 0.05 0.05 83 1016.9
20260505080027 23 159 6.4 11.3 0.00 0.05 0.05 84 1017.1
20260505074512 22 78 3.2 11.3 0.00 0.05 0.05 86 1017.3
20260505073008 21 160 4.8 20.9 0.00 0.05 0.05 88 1017.4
20260505071506 21 105 8.0 12.9 0.00 0.05 0.05 88 1017.5
20260505070005 21 115 6.4 9.7 0.00 0.05 0.05 88 1017.9
20260505064506 21 108 4.8 9.7 0.00 0.05 0.05 88 1018.1
20260505063002 21 119 3.2 6.4 0.00 0.05 0.05 87 1018.2
20260505061621 21 141 4.8 8.0 0.00 0.05 0.05 87 1018.3
20260505060059 21 120 1.6 6.4 0.00 0.05 0.05 86 1018.5
20260505054556 21 85 1.6 8.0 0.00 0.05 0.05 85 1018.3
20260505053050 20 102 3.2 8.0 0.00 0.05 0.05 84 1018.2
20260505051547 20 120 1.6 4.8 0.00 0.05 0.05 85 1018.4
20260505041539 19 267 0.0 0.0 0.00 0.05 0.05 86 1018.4
20260505040048 18 241 0.0 0.0 0.05 0.05 0.05 87 1018.4
20260505034538 17 241 0.0 0.0 0.05 0.05 0.05 94 1018.2
20260505033026 16 241 0.0 0.0 0.05 0.05 0.05 95 1018.1
20260505031526 15 241 0.0 0.0 0.05 0.05 0.05 96 1018.2
20260505030025 15 92 0.0 0.0 0.00 0.00 0.00 97 1018.3
20260505024523 15 82 0.0 0.0 0.00 0.00 0.00 95 1018.1
20260505023022 15 82 0.0 0.0 0.00 0.00 0.00 94 1018.0
20260505021522 15 82 0.0 0.0 0.00 0.00 0.00 94 1017.8
20260505020034 15 82 0.0 0.0 0.00 0.00 0.00 94 1017.6
20260505014520 15 82 0.0 0.0 0.00 0.00 0.00 94 1017.4
20260505013021 15 82 0.0 0.0 0.00 0.00 0.00 94 1017.2
20260505011520 15 82 0.0 0.0 0.00 0.00 0.00 94 1017.3
20260505010019 15 82 0.0 0.0 0.00 0.00 0.00 94 1017.3
20260505004518 15 82 0.0 0.0 0.00 0.00 0.00 95 1017.3
20260505003016 15 82 0.0 0.0 0.00 0.00 0.00 95 1017.4
20260505001516 15 82 0.0 0.0 0.00 0.00 0.00 95 1017.4
20260505000017 15 82 0.0 0.0 0.00 0.00 0.00 96 1017.4
20260504234615 15 82 0.0 0.0 0.00 0.00 0.00 97 1017.3
20260504233013 15 82 0.0 0.0 0.00 0.00 0.00 97 1017.4
20260504231512 15 82 0.0 0.0 0.00 0.00 0.00 98 1017.5
20260504230012 15 82 0.0 0.0 0.00 0.00 0.00 98 1017.6
20260504224510 15 82 0.0 0.0 0.00 0.00 0.00 98 1017.6
20260504223010 15 82 0.0 0.0 0.00 0.00 0.00 98 1017.6
20260504221508 15 82 0.0 0.0 0.00 0.00 0.00 98 1017.8
20260504220021 15 82 0.0 0.0 0.00 0.00 0.00 99 1017.8
20260504214504 15 82 0.0 0.0 0.00 0.00 0.00 99 1018.0
20260504213006 15 82 0.0 0.0 0.00 0.00 0.00 99 1018.0
20260504211502 15 82 0.0 0.0 0.00 0.00 0.00 99 1018.0
20260504210105 16 82 0.0 0.0 0.00 0.00 0.00 100 1018.0
20260504204605 16 82 0.0 0.0 0.00 0.00 0.00 100 1018.1
20260504203058 16 82 0.0 0.0 0.00 0.00 0.00 99 1018.2
20260504201558 15 82 0.0 0.0 0.00 0.00 0.00 99 1018.3
20260504200057 15 82 0.0 0.0 0.00 0.00 0.00 99 1018.4
20260504194559 16 82 0.0 0.0 0.00 0.00 0.00 99 1018.4
20260504193112 16 82 0.0 0.0 0.00 0.00 0.00 99 1018.5
20260504191555 16 82 0.0 0.0 0.00 0.00 0.00 100 1018.7
20260504190106 16 82 0.0 0.0 0.00 0.00 0.00 100 1018.6
20260504184554 16 82 0.0 0.0 0.00 0.00 0.00 100 1018.6
20260504183100 16 82 0.0 0.0 0.00 0.00 0.00 100 1018.5
20260504181554 16 82 0.0 0.0 0.00 0.00 0.00 100 1018.4
20260504180131 16 82 0.0 0.0 0.00 0.00 0.00 100 1018.6
20260504174552 16 82 0.0 1.6 0.00 0.00 0.00 100 1018.6
20260504173052 16 82 0.0 0.0 0.00 0.00 0.00 100 1018.6
20260504171552 17 82 0.0 0.0 0.00 0.00 0.00 100 1018.6